Location: Biltmore Gardens
(41.6070°N, 83.4666°W)
Time: 13:58:45
(UTC+00:00)

Courier 1B Rocket - All Passes

Search period start: 23 April 2021 00:00
Search period end: 03 May 2021 00:00
Orbit: 920 x 1202 km, 28.2° (Epoch: 22 April)

Date Brightness Start Highest point End Pass type
(mag) Time Alt. Az. Time Alt. Az. Time Alt. Az.
23 Apr - 00:04:37 10° SSW 00:09:10 20° SSE 00:13:55 10° ESE daylight
23 Apr - 01:56:14 10° SW 02:01:43 27° S 02:07:31 10° SE visible
23 Apr - 03:49:17 10° WSW 03:54:24 22° SSW 03:59:47 10° SSE visible
23 Apr - 05:46:11 10° SSW 05:46:58 10° SSW 05:47:44 10° SSW night (unlit)
23 Apr - 23:04:46 10° SSW 23:08:27 16° SSE 23:12:13 10° SE daylight
24 Apr - 00:55:40 10° SW 01:00:53 25° S 01:06:23 10° ESE visible
24 Apr - 02:48:15 10° WSW 02:53:32 24° S 02:59:05 10° SE visible
24 Apr - 04:42:44 10° SW 04:46:08 14° SSW 04:49:37 10° S visible
24 Apr - 22:05:45 10° S 22:07:47 12° SSE 22:09:50 10° SE daylight
24 Apr - 23:55:15 10° SW 00:00:06 23° S 00:05:09 10° ESE daylight
25 Apr - 01:47:24 10° WSW 01:52:41 25° S 01:58:14 10° SE visible
25 Apr - 03:41:00 10° WSW 03:45:18 17° SSW 03:49:44 10° SSE visible
25 Apr - 22:55:04 10° SSW 22:59:22 19° SSE 23:03:47 10° ESE daylight
26 Apr - 00:46:42 10° SW 00:51:51 25° S 00:57:16 10° SE visible
26 Apr - 02:39:44 10° WSW 02:44:28 20° SSW 02:49:24 10° SSE visible
26 Apr - 21:55:12 10° SSW 21:58:40 15° SSE 22:02:12 10° SE daylight
26 Apr - 23:46:07 10° SW 23:51:05 24° S 23:56:14 10° ESE daylight
27 Apr - 01:38:44 10° WSW 01:43:39 23° S 01:48:47 10° SE visible
27 Apr - 03:33:27 10° SW 03:36:10 13° SSW 03:38:57 10° S visible
27 Apr - 20:56:07 10° S 20:58:01 11° SSE 20:59:55 10° SE daylight
27 Apr - 22:45:41 10° SW 22:50:20 22° S 22:55:07 10° ESE daylight
28 Apr - 00:37:53 10° SW 00:42:51 24° S 00:48:02 10° SE daylight
28 Apr - 02:31:35 10° SW 02:35:23 16° SSW 02:39:18 10° SSE visible
28 Apr - 21:45:26 10° SSW 21:49:38 19° SSE 21:53:52 10° ESE daylight
28 Apr - 23:37:10 10° SW 23:42:05 24° S 23:47:10 10° SE daylight
29 Apr - 01:30:17 10° WSW 01:34:36 19° SSW 01:39:06 10° SSE visible
29 Apr - 20:45:29 10° SSW 20:48:56 15° SSE 20:52:24 10° SE daylight
29 Apr - 22:36:33 10° SW 22:41:20 23° S 22:46:14 10° SE daylight
30 Apr - 00:29:14 10° WSW 00:33:51 21° S 00:38:37 10° SE daylight
30 Apr - 02:24:24 10° SW 02:26:17 11° SSW 02:28:12 10° S visible
30 Apr - 19:46:11 10° S 19:48:16 12° SSE 19:50:21 10° SE daylight
30 Apr - 21:36:02 10° SW 21:40:37 22° S 21:45:13 10° ESE daylight
30 Apr - 23:28:20 10° SW 23:33:06 23° S 23:37:59 10° SE daylight
01 May - 01:22:14 10° SW 01:25:33 15° SSW 01:28:57 10° SSE visible
01 May - 20:35:41 10° SSW 20:39:55 19° SSE 20:44:07 10° SE daylight
01 May - 22:27:33 10° SW 22:32:22 24° S 22:37:15 10° SE daylight
02 May - 00:20:49 10° SW 00:24:50 18° SSW 00:28:56 10° SSE daylight
02 May - 19:35:34 10° SSW 19:39:13 16° SSE 19:42:48 10° SE daylight
02 May - 21:26:50 10° SW 21:31:38 23° S 21:36:25 10° SE daylight
02 May - 23:19:41 10° WSW 23:24:06 20° S 23:28:37 10° SE daylight
